星链-2734 (STARLINK-2734 )

导读

STARLINK-2734是美国SpaceX公司星链(Starlink)项目中的一颗卫星,于2021年5月26日发射升空,它属于星链卫星互联网星座的组成部分,主要为全球提供高速互联网接入服务,尤其覆盖偏远地区等网络基础设施匮乏区域,该卫星延续星链设计,依托太空低轨组网实现低延迟网络服务。

Basic Information
目录编号:
48657
目录名称:
STARLINK-2734
国际标识:
2021-044V
轨道中心:
EARTH
卫星名称:
星链-2734
卫星全名:
星链-2734 (STARLINK-2734 )
卫星状态:
在轨 (已飞行1927 天)
发射日期:
2021-05-26 UTC
国别 :
美国 (US)
星等 :
--
Orbit Information
数据来源 国际轨道数据
星历时间: 2026-09-04T01:16:32+0800
11小时前
查看轨道信息
半长轴: 6848.89km
偏心率: 0.000115
轨道倾角: 53.162°
近地点辐角 101.297°
升交点赤经 5.467°
平近点角 258.816°
近地点: 469.965km
远地点: 471.541km
周期: 94.013分钟
每日圈数: 15.316959
Detailed Information
固有亮度:
5
最大亮度:
2.5
卫星平台:
Starlink V1.0
覆盖范围:
全球
运营商:
太空探索技术公司
运营商所在国:
美国
制造商(研发单位):
太空探索技术公司
制造商所在国:
美国
使用方式:
暂无
Satellite Introduction
星链(Starlink)计划是由太空探索技术公司(SpaceX)提出的一个巨型低轨卫星互联网星座项目,计划在2019年至2024年间在太空搭建由约1.2万颗卫星组成的“星链”网络,其中1584颗将部署在地球上空550千米处的近地轨道,并从2020年开始工作。该卫星仍在工作。
2D Orbit Map
3D Orbit Map
Orbit Altitude Analysis Chart
Orbit Inclination Analysis Chart
Orbit Comprehensive Analysis Chart
View Comprehensive Chart
Conjunction Data List
Event ID Objects TCA Miss Dist (km) Collision Risk Probability Collision Risk Index (CRI) Action
CDM_260904-155102-172304-865721
2026-09-04T
15:51:27+0000
1.326 km
极远距离
9.198826E-6 低风险 0.54
CDM_260905-022004-865706-863322
MISR-C-2 (68633)
2026-09-05T
02:20:36+0000
2.134 km
极远距离
2.089065E-6 低风险 0.41
CDM_260831-085804-865706-943521
2026-08-31T
08:58:30+0000
2.522 km
极远距离
1.429101E-6 低风险 0.38
CDM_260903-115604-865706-811521
2026-09-03T
11:56:41+0000
2.895 km
极远距离
1.387804E-6 低风险 0.38
CDM_260903-191704-865706-566321
2026-09-03T
19:17:14+0000
2.842 km
极远距离
1.164485E-6 低风险 0.36